Flag for United Kingdom Weather past 2 weeks in Plymouth, England, United Kingdom

Now
55 °F

Passing clouds.


Feels Like: 54 °F
Forecast: N/A
Wind: 7 mph from South

Location: Exeter Airport

Current Time: Oct 26, 2014 at 7:03:08 AM

Latest Report: Oct 26, 2014 at 6:20 AM


Visibility: N/A

Pressure: 30.12 "Hg

Humidity: 72%

Dew point: 46 °F

Location of PlymouthLocation

Historic Weather in Plymouth — Graph

°F

Plymouth temperature yesterday

Maximum temperature yesterday: 59 °F (at 4:20 PM)
Minimum temperature yesterday: 50 °F (at 12:20 AM)
Average temperature yesterday: 54 °F

Past Weeks' High & Low Weather Summary

 TemperatureHumidityPressure
High66 °F (Oct 19, 1:50 PM)100% (Oct 11, 6:20 AM)30.36 "Hg (Oct 11, 6:20 AM)
Low39 °F (Oct 12, 6:20 AM)58% (Oct 21, 4:50 PM)29.47 "Hg (Oct 16, 1:20 AM)
Average55 °F86%29.86 "Hg
* Reported Oct 11 2:20 AM — Oct 26 1:20 AM, Plymouth, Weather by CustomWeather, © 2014

Note: Actual official high and low records may vary slightly from our data, if they occured in-between our weather recording intervals... More about our weather records

Advertising

Plymouth weather history for previous 24 hours

 ConditionsComfort  
Time TempWeatherWind HumidityBarometerVisibility
1:20 AM
Oct 26
55 °FPassing clouds.7 mph72%30.15 "HgN/A
1:50 AM55 °FPassing clouds.7 mph72%30.15 "HgN/A
1:20 AM55 °FPassing clouds.8 mph72%30.18 "HgN/A
12:50 AM55 °FPassing clouds.9 mph77%30.15 "HgN/A
12:20 AM55 °FPassing clouds.10 mph72%30.15 "HgN/A
5:50 PM
Oct 25
57 °FPartly sunny.9 mph67%30.12 "HgN/A
5:20 PM57 °FPartly sunny.7 mph67%30.09 "HgN/A
4:50 PM57 °FPartly sunny.8 mph67%30.09 "HgN/A
4:20 PM59 °FScattered clouds.10 mph63%30.09 "HgN/A
3:50 PM57 °FScattered clouds.13 mph67%30.09 "HgN/A
3:20 PM57 °FPartly sunny.10 mph67%30.09 "HgN/A
2:50 PM57 °FScattered clouds.10 mph72%30.09 "HgN/A
2:20 PM57 °FPartly sunny.15 mph67%30.09 "HgN/A
1:50 PM57 °FScattered showers. Partly sunny.9 mph67%30.09 "HgN/A
1:20 PM57 °FPartly sunny.10 mph72%30.09 "HgN/A
12:50 PM57 °FScattered clouds.10 mph72%30.09 "HgN/A
12:20 PM55 °FScattered clouds.9 mph77%30.09 "HgN/A
11:50 AM55 °FScattered showers. Partly sunny.10 mph77%30.09 "HgN/A
11:20 AM55 °FPartly sunny.12 mph77%30.09 "HgN/A
10:50 AM55 °FPartly sunny.10 mph77%30.09 "HgN/A
10:20 AM54 °FPartly sunny.7 mph77%30.09 "HgN/A
9:50 AM54 °FPartly sunny.9 mph77%30.09 "HgN/A
9:20 AM54 °FPartly sunny.8 mph77%30.07 "HgN/A
8:50 AM52 °FPassing clouds.8 mph77%30.07 "HgN/A
8:20 AM52 °FPassing clouds.7 mph77%30.07 "HgN/A
7:50 AM52 °FPassing clouds.7 mph77%30.04 "HgN/A
7:20 AM52 °FPassing clouds.6 mph82%30.04 "HgN/A
Weather by CustomWeather, © 2014

See weather overviewHow to use our weather pages